Regional Weather Roundup
Issued by NWS

Home | Current Version | Previous Version | Text Only | Print | Product List | Glossary Off
Versions: 1 2 3 4 5 6 7 8 9 10 11 12 13 14 15 16 17 18 19 20 21 22 23 24 25 26 27 28 29 30 31 32 33 34 35 36 37 38 39 40 41 42 43 44 45 46 47 48 49 50

000
ASUS44 KOUN 251710
RWROK

WEATHER ROUNDUP FOR OKLAHOMA
NATIONAL WEATHER SERVICE NORMAN OK
1200 PM CDT SAT JUN 25 2016

NOTE: "FAIR" INDICATES FEW OR NO CLOUDS BELOW 12,000 FEET WITH NO
      SIGNIFICANT WEATHER AND/OR OBSTRUCTIONS TO VISIBILITY.

OKZ001>007-009>012-014-015-017-251800-
NORTHWEST OKLAHOMA AND THE PANHANDLE

CITY           SKY/WX    TMP DP  RH WIND       PRES   REMARKS
GAGE           SUNNY     89  65  44 SW22      29.99R HX  91
GUYMON         SUNNY     94  57  28 S15       29.95S HX  92
ENID/WOODRING  MOSUNNY   95  68  41 SW12G28   29.97F HX  99
$$

OKZ016-021>023-033>039-044-045-251800-
SOUTHWEST OKLAHOMA

CITY           SKY/WX    TMP DP  RH WIND       PRES   REMARKS
LAWTON/REGL    MOSUNNY   91  71  51 S12       30.01S HX  97
LAWTON/FT SILL PTSUNNY   87  72  60 S9        30.00F HX  94
FREDERICK      MOSUNNY   91  72  53 S17       29.98F HX  98
CLINTON        SUNNY     90  68  48 S20G31    30.03S HX  94
HOBART         MOSUNNY   88  70  55 S14G23    30.01F HX  93
ALTUS AFB      SUNNY     90  67  46 S16       30.00S HX  93
$$

OKZ018>020-024>031-251800-
CENTRAL OKLAHOMA

CITY           SKY/WX    TMP DP  RH WIND       PRES   REMARKS
OKLAHOMA CITY  MOSUNNY   88  72  58 S15G23    30.02F HX  94
OKC/WILEY POST SUNNY     91  71  51 S16       30.02S HX  97
OKC/TINKER AFB MOSUNNY   87  71  59 S15G29    30.02F HX  93
STILLWATER     MOSUNNY   92  70  48 S15G23    29.99F HX  97
GUTHRIE        MOSUNNY   92  71  50 SW8G22    30.00S HX  98
$$

OKZ008-013-054>072-251800-
NORTHEAST OKLAHOMA

CITY           SKY/WX    TMP DP  RH WIND       PRES   REMARKS
TULSA          MOSUNNY   90  72  55 S17G24    30.00F HX  97
TULSA/JONES    MOSUNNY   91  71  51 S13       30.02S HX  97
PONCA CITY     SUNNY     92  70  48 S9G20     29.98S HX  97
BARTLESVILLE   SUNNY     91  71  51 S9        30.02S HX  97
MUSKOGEE       MOSUNNY   90  74  59 SW12G18   30.05F HX  99
$$

OKZ032-040>043-046>053-073>077-251800-
SOUTH CENTRAL/SOUTHEAST OKLAHOMA

CITY           SKY/WX    TMP DP  RH WIND       PRES   REMARKS
ARDMORE/DWNTWN SUNNY     88  66  48 SW8       30.04S HX  90
MCALESTER      SUNNY     88  72  58 S9        30.06S HX  94
$$




USA.gov is the U.S. government's official web portal to all federal, state and local government web resources and services.